Regional Weather Roundup
Issued by NWS Wilmington, NC

Home | Current Version | Previous Version | Text Only | Print | Product List | Glossary On
Versions: 1 2 3 4 5 6 7 8 9 10 11 12 13 14 15 16 17 18 19 20 21 22 23 24 25 26 27 28 29 30 31 32 33 34 35 36 37 38 39 40 41 42 43 44 45 46 47 48 49 50
000
ASUS42 KILM 281912
RWRILM
RWRILM
REGIONAL HOURLY WEATHER ROUNDUP
NATIONAL WEATHER SERVICE WILMINGTON NC
300 PM EDT SUN AUG 28 2016

NOTE: "FAIR" INDICATES FEW OR NO CLOUDS BELOW 12,000 FEET WITH NO
SIGNIFICANT WEATHER AND/OR OBSTRUCTIONS TO VISIBILITY.

...............WFO WILMINGTON COUNTY WARNING AREA...............

......COASTAL NC AND SC COUNTIES......

CITY           SKY/WX    TMP DP  RH WIND       PRES   REMARKS
WILMINGTON     CLOUDY    83  75  77 N8        30.11F HX  90
N MYRTLE BEACH CLOUDY    79  75  87 NE6       30.11F
MYRTLE BEACH   PTSUNNY   82  70  65 NE12      30.12F

......INLAND NC AND SC COUNTIES.......

CITY           SKY/WX    TMP DP  RH WIND       PRES   REMARKS
LUMBERTON      CLOUDY    90  67  46 NE9       30.12F HX  93
ELIZABETHTOWN  CLOUDY    86  71  61 NW3       30.13F HX  91
WHITEVILLE     CLOUDY    85  71  63 N5        30.11F HX  90
FLORENCE       MOSUNNY   94  67  41 NE9G18    30.10F HX  97
DARLINGTON     MOSUNNY   91  68  46 NE12      30.12F HX  95
KINGSTREE      CLOUDY    88  68  51 E12G17    30.09F HX  91
HARTSVILLE     FAIR      91  63  38 NE10G17   30.12F HX  92
BENNETTSVILLE  FAIR      93  63  36 NE9G16    30.11F HX  94
CONWAY         RAIN      77  72  83 E6        30.11S
GEORGETOWN     PTSUNNY   86  73  66 E13       30.09F HX  93
MARION         CLOUDY    86  70  58 NE9       30.11F HX  90

....................REST OF NORTH CAROLINA......................

.........EASTERN NC.........

CITY           SKY/WX    TMP DP  RH WIND       PRES   REMARKS
CAPE HATTERAS  CLOUDY    83  77  82 VRB5      30.11F HX  92
JACKSONVILLE   LGT RAIN  83  75  77 NE9       30.13S HX  90
MOREHEAD CITY  CLOUDY    84  76  76 N6        30.11F HX  93
KENANSVILLE    PTSUNNY   86  72  62 E3        30.12F HX  92
NEW BERN       LGT RAIN  78  74  87 CALM      30.14F
ELIZABETH CITY CLOUDY    83  74  74 NE17      30.14F

.........CENTRAL NC.........

CITY           SKY/WX    TMP DP  RH WIND       PRES   REMARKS
RALEIGH DURHAM MOSUNNY   89  65  44 NE12G17   30.17F HX  91
ROCKY MOUNT    MOSUNNY   88  71  57 NE8       30.13F HX  94
ROANOKE RAPIDS NOT AVBL
FAYETTEVILLE   PTSUNNY   89  68  49 N12       30.13F HX  93
HOFFMAN        NOT AVBL

.........WESTERN NC.........

CITY           SKY/WX    TMP DP  RH WIND       PRES   REMARKS
CHARLOTTE      MOSUNNY   89  64  43 NE7       30.17F HX  90
GREENSBORO     MOSUNNY   87  59  38 NE14G22   30.18F
HICKORY        NOT AVBL
BOONE          NOT AVBL
ASHEVILLE      NOT AVBL

.....................REST OF SOUTH CAROLINA.....................

.........EASTERN SC.........

CITY           SKY/WX    TMP DP  RH WIND       PRES   REMARKS
CHARLESTON     TSTM      83  74  74 E5        30.08F
BEAUFORT MCAS  LGT RAIN  84  76  76 E10       30.06F HX  93
HILTON HEAD    MOSUNNY   91  75  59 E7G16     30.07F HX 102

.........CENTRAL SC.........

CITY           SKY/WX    TMP DP  RH WIND       PRES   REMARKS
COLUMBIA       PTSUNNY   96  65  35 E15       30.08F HX  98
ORANGEBURG     PTSUNNY   93  69  45 NE12      30.09F HX  98
SUMTER SHAW    MOSUNNY   93  67  43 N12       30.07F HX  96

.........WESTERN SC.........

CITY           SKY/WX    TMP DP  RH WIND       PRES   REMARKS
GREENVILLE     NOT AVBL
ROCK HILL      SUNNY     90  62  39 E8        30.16F HX  90
ANDERSON       MOSUNNY   91  68  46 NE13      30.14F HX  95
CLEMSON        NOT AVBL
GREENWOOD      MOSUNNY   89  68  49 NE7       30.14F HX  93


...................COASTAL AND OFFSHORE REPORTS..................

................LOCAL PIERS AND NC RESERVE................


STATION/POSITION TIME  SKY/WX   TEMP    WIND        PRES    VSBY
                                AIR SEA DIR/SP/G
                 (UTC)          (F)     (DEG/KT/KT) (MB)    (MI)
JOHNY MRCER PIER 1800            82 85   40/ 11/ 12 1018.8F
NC RESRV MASNBRO NOT AVBL
OCEAN CREST PIER NOT AVBL
SPRINGMAID  PIER 1800            83 85   50/  6/  7 1019.3F


................COASTAL AND OFFSHORE BUOYS................


STATION/POSITION TIME  SKY/WX   TEMP    WIND        PRES    VSBY
                                AIR SEA DIR/SP/G
                 (UTC)          (F)     (DEG/KT/KT) (MB)    (MI)
DIMNDSHOAL 41025 1850            83 85   70/ 10/ 14 1019.4F
WVE H/P(F/S)=  3/ 8 SWL H/P/D(F/S/D)=  2/100/ 8

CAPE LOOKOUT     1900            83      40/ 11/ 12 1019.1F
ONSLOW BAY 41036 NOT AVBL
ONSLOW BAY 41064 1808            84 84   60/ 12/ 14 1019.3F
ONSLOW BAY 41159 1825               84                N/A
WVE H/P(F/S)=  3/ 8

5SE WRITBC 41038 NOT AVBL
MASNBO INL 41110 NOT AVBL
WILM HARBR 41108 1826               85                N/A
WVE H/P(F/S)=  3/ 8

27SE WRITB 41037 1808            82 84   30/ 14/ 17 1019.3F
FRYING PAN 41013 1800            84 84   60/  8/ 10 1018.9F
SUNST NRSH 41024 1808            81 85  330/ 10/ 14 1019.3F
CAPRS NRSH 41029 1808            84 84   70/ 12/ 17 1018.7F
EDISTO     41004 1850            83 86   50/  8/ 10 1017.7F
WVE H/P(F/S)=  3/ 9 SWL H/P/D(F/S/D)=  3/130/ 9



..........OFFSHORE BUOYS BEYOND 100 NM OFFSHORE...........
.....IN A TRIANGLE---HAT TO BERMUDA TO BAHAMAS TO HAT.....


STATION/POSITION TIME  SKY/WX   TEMP    WIND        PRES    VSBY
                                AIR SEA DIR/SP/G
                 (UTC)          (F)     (DEG/KT/KT) (MB)    (MI)
150E HAT   41001 NOT AVBL
W BERMUDA  41048 1850            83 84  160/ 19/ 25 1013.4F
WVE H/P(F/S)=  7/ 6 SWL H/P/D(F/S/D)=  3/110/14

ATLANTIC S 41049 1850            85 86   70/ 10/ 12 1016.5F
WVE H/P(F/S)=  7/11 SWL H/P/D(F/S/D)=  7/100/11

E BAHAMAS  41046 1800            83 85   70/  6/  8 1015.8F
NE BAHAMAS 41047 1800            85 87  110/  8/ 10 1016.0F
120E CANVRL41010 NOT AVBL

END



USA.gov is the U.S. government's official web portal to all federal, state and local government web resources and services.